FW7166 Weather Reports


Display with metric or nautical units.
time (UTC)temp
F
wind
direction
speed
MPH
gust
MPH
rain 1hr
in
rain 24hr
in
rain mn
in
humidity
%
barometer
mb
20260509111416 62 329 1.0 12.0 0.00 0.00 0.00 24 1024.4
20260509110915 63 36 0.0 12.0 0.00 0.00 0.00 25 1024.5
20260509110415 62 90 1.0 12.0 0.00 0.00 0.00 23 1024.6
20260509105913 62 1 0.0 12.0 0.00 0.00 0.00 24 1024.9
20260509105413 62 355 0.0 12.0 0.00 0.00 0.00 24 1024.7
20260509104914 61 345 1.0 12.0 0.00 0.00 0.00 25 1024.6
20260509104413 62 54 2.0 12.0 0.00 0.00 0.00 22 1025.0
20260509103913 62 28 0.0 12.0 0.00 0.00 0.00 23 1024.8
20260509103413 62 36 2.0 12.0 0.00 0.00 0.00 23 1025.1
20260509102912 62 87 3.0 12.0 0.00 0.00 0.00 22 1025.0
20260509102412 61 210 0.0 12.0 0.00 0.00 0.00 22 1025.0
20260509101911 62 79 1.0 12.0 0.00 0.00 0.00 21 1025.0
20260509101410 61 355 0.0 12.0 0.00 0.00 0.00 23 1025.0
20260509100909 62 50 2.0 12.0 0.00 0.00 0.00 20 1025.1
20260509100408 61 46 1.0 12.0 0.00 0.00 0.00 22 1025.2
20260509095907 61 61 1.0 12.0 0.00 0.00 0.00 20 1025.4
20260509095406 61 7 2.0 12.0 0.00 0.00 0.00 22 1025.4
20260509094905 61 126 1.0 12.0 0.00 0.00 0.00 22 1025.4
20260509094404 60 63 2.0 12.0 0.00 0.00 0.00 23 1025.4
20260509093903 59 118 0.0 12.0 0.00 0.00 0.00 21 1025.4
20260509093403 59 316 1.0 12.0 0.00 0.00 0.00 21 1025.4
20260509092347 60 73 1.0 12.0 0.00 0.00 0.00 20 1025.3
20260509091330 59 99 0.0 12.0 0.00 0.00 0.00 20 1025.4
20260509090314 60 69 2.0 12.0 0.00 0.00 0.00 20 1025.6
20260509085813 59 42 1.0 12.0 0.00 0.00 0.00 23 1025.6
20260509085313 58 131 1.0 12.0 0.00 0.00 0.00 24 1025.6
20260509084813 58 328 0.0 12.0 0.00 0.00 0.00 24 1025.5
20260509083758 59 66 2.0 12.0 0.00 0.00 0.00 24 1025.8
20260509083258 59 89 2.0 12.0 0.00 0.00 0.00 24 1025.8
20260509082758 59 105 1.0 12.0 0.00 0.00 0.00 27 1025.9
20260509082257 59 115 2.0 12.0 0.00 0.00 0.00 28 1025.9
20260509081757 58 47 0.0 12.0 0.00 0.00 0.00 29 1025.8
20260509081257 59 40 1.0 12.0 0.00 0.00 0.00 28 1025.7
20260509080757 58 103 2.0 12.0 0.00 0.00 0.00 29 1025.9
20260509080256 57 19 0.0 12.0 0.00 0.00 0.00 31 1026.0
20260509075756 56 42 1.0 12.0 0.00 0.00 0.00 30 1025.9
20260509075255 56 91 2.0 12.0 0.00 0.00 0.00 31 1026.1
20260509074754 56 358 1.0 12.0 0.00 0.00 0.00 32 1026.0
20260509073739 56 113 0.0 12.0 0.00 0.00 0.00 30 1026.1
20260509073238 56 66 1.0 12.0 0.00 0.00 0.00 30 1026.2
20260509072738 56 76 1.0 12.0 0.00 0.00 0.00 33 1025.8
20260509072237 55 104 0.0 12.0 0.00 0.00 0.00 31 1026.2
20260509071221 54 118 1.0 12.0 0.00 0.00 0.00 33 1026.4
20260509070721 54 92 1.0 12.0 0.00 0.00 0.00 33 1026.3
20260509070221 53 76 0.0 12.0 0.00 0.00 0.00 37 1026.7
20260509065721 53 102 1.0 12.0 0.00 0.00 0.00 35 1026.3
20260509065221 53 46 1.0 12.0 0.00 0.00 0.00 36 1026.3
20260509064205 53 81 0.0 12.0 0.00 0.00 0.00 38 1026.4
20260509063705 52 81 0.0 12.0 0.00 0.00 0.00 39 1026.5
20260509062133 50 76 1.0 12.0 0.00 0.00 0.00 41 1026.6
20260509061117 49 76 0.0 12.0 0.00 0.00 0.00 42 1026.5
20260509060617 49 45 1.0 12.0 0.00 0.00 0.00 43 1026.5
20260509060117 49 40 0.0 12.0 0.00 0.00 0.00 46 1026.3
20260509055617 48 40 0.0 12.0 0.00 0.00 0.00 46 1026.6
20260509054600 46 40 0.0 12.0 0.00 0.00 0.00 47 1026.5
20260509054059 45 40 0.0 12.0 0.00 0.00 0.00 49 1026.6
20260509053043 43 40 0.0 12.0 0.00 0.00 0.00 51 1026.9
20260509052542 42 40 0.0 12.0 0.00 0.00 0.00 52 1026.8
20260509052042 41 40 0.0 12.0 0.00 0.00 0.00 53 1026.5
20260509051541 41 40 0.0 12.0 0.00 0.00 0.00 56 1027.1
20260509051040 40 40 0.0 12.0 0.00 0.00 0.00 56 1026.8
20260509050540 40 40 0.0 12.0 0.00 0.00 0.00 57 1026.8
20260509050040 39 40 0.0 12.0 0.00 0.00 0.00 58 1027.1
20260509045539 39 40 0.0 12.0 0.00 0.00 0.00 58 1027.1
20260509045039 38 40 0.0 12.0 0.00 0.00 0.00 58 1027.0
20260509044539 38 40 0.0 12.0 0.00 0.00 0.00 58 1027.1
20260509044038 37 40 0.0 12.0 0.00 0.00 0.00 61 1027.1
20260509043537 36 40 0.0 12.0 0.00 0.00 0.00 63 1027.1
20260509043036 36 40 0.0 12.0 0.00 0.00 0.00 64 1027.1
20260509042536 35 40 0.0 12.0 0.00 0.00 0.00 66 1027.3
20260509042036 35 40 0.0 12.0 0.00 0.00 0.00 68 1027.0
20260509041535 34 40 0.0 12.0 0.00 0.00 0.00 69 1027.1
20260509041034 34 40 0.0 12.0 0.00 0.00 0.00 70 1027.0
20260509040534 33 40 0.0 12.0 0.00 0.00 0.00 70 1026.9
20260509040034 33 40 0.0 12.0 0.00 0.00 0.00 71 1027.0
20260509035018 32 40 0.0 12.0 0.00 0.00 0.00 71 1027.3
20260509034518 32 40 0.0 12.0 0.00 0.00 0.00 71 1027.3
20260509034017 32 40 0.0 12.0 0.00 0.00 0.00 71 1027.2
20260509033516 32 40 0.0 12.0 0.00 0.00 0.00 71 1027.1
20260509032500 32 40 0.0 12.0 0.00 0.00 0.00 70 1027.1
20260509031959 32 40 0.0 12.0 0.00 0.00 0.00 70 1027.4
20260509031458 32 40 0.0 12.0 0.00 0.00 0.00 69 1027.2
20260509030958 32 40 0.0 12.0 0.00 0.00 0.00 69 1027.3
20260509030457 33 40 0.0 12.0 0.00 0.00 0.00 69 1027.5
20260509025957 33 40 0.0 12.0 0.00 0.00 0.00 68 1027.3
20260509025456 33 40 0.0 12.0 0.00 0.00 0.00 68 1027.7
20260509024956 33 40 0.0 12.0 0.00 0.00 0.00 67 1027.6
20260509024455 33 40 0.0 12.0 0.00 0.00 0.00 67 1027.3
20260509022922 34 40 0.0 12.0 0.00 0.00 0.00 66 1027.4
20260509022421 34 40 0.0 12.0 0.00 0.00 0.00 65 1027.3
20260509021920 34 40 0.0 12.0 0.00 0.00 0.00 64 1027.2
20260509021419 35 40 0.0 12.0 0.00 0.00 0.00 64 1027.6
20260509020918 35 40 0.0 12.0 0.00 0.00 0.00 64 1027.4
20260509020417 35 40 0.0 12.0 0.00 0.00 0.00 64 1027.6
20260509015917 35 40 0.0 12.0 0.00 0.00 0.00 63 1027.7
20260509014902 36 40 0.0 12.0 0.00 0.00 0.00 62 1027.9
20260509014402 36 40 0.0 12.0 0.00 0.00 0.00 62 1027.8
20260509013901 36 40 0.0 12.0 0.00 0.00 0.00 61 1027.7
20260509013401 36 40 0.0 12.0 0.00 0.00 0.00 61 1027.8
20260509012900 37 40 0.0 12.0 0.00 0.00 0.00 61 1027.7
20260509012400 37 40 0.0 12.0 0.00 0.00 0.00 60 1027.7
20260509011900 37 40 0.0 12.0 0.00 0.00 0.00 60 1027.7
20260509011359 37 40 0.0 12.0 0.00 0.00 0.00 60 1027.9
20260509010859 37 40 0.0 12.0 0.00 0.00 0.00 60 1027.7
20260509010359 38 40 0.0 12.0 0.00 0.00 0.00 59 1027.7
20260509005342 38 40 0.0 12.0 0.00 0.00 0.00 58 1027.8
20260509004842 38 40 0.0 12.0 0.00 0.00 0.00 57 1027.5
20260509004341 39 40 0.0 12.0 0.00 0.00 0.00 57 1027.9
20260509002809 39 40 0.0 12.0 0.00 0.00 0.00 56 1027.6
20260509002308 40 40 0.0 12.0 0.00 0.00 0.00 56 1027.7
20260509001807 40 40 0.0 12.0 0.00 0.00 0.00 55 1027.7
20260509001307 40 40 0.0 12.0 0.00 0.00 0.00 55 1027.7
20260508235736 41 40 0.0 12.0 0.00 0.00 0.00 53 1027.6
20260508235235 41 40 0.0 12.0 0.00 0.00 0.00 52 1027.4
20260508234734 41 40 0.0 12.0 0.00 0.00 0.00 52 1027.6
20260508234233 41 40 0.0 12.0 0.00 0.00 0.00 51 1027.6
20260508233732 42 40 0.0 12.0 0.00 0.00 0.00 51 1027.5
20260508233232 42 40 0.0 12.0 0.00 0.00 0.00 50 1027.5
20260508232732 42 40 0.0 12.0 0.00 0.00 0.00 49 1027.2
20260508232230 43 40 0.0 12.0 0.00 0.00 0.00 49 1027.6
20260508231729 43 40 0.0 12.0 0.00 0.00 0.00 48 1027.6
20260508231229 43 40 0.0 12.0 0.00 0.00 0.00 48 1027.6
20260508230728 44 40 0.0 12.0 0.00 0.00 0.00 47 1027.4
20260508230228 44 40 0.0 12.0 0.00 0.00 0.00 47 1027.3
20260508225728 44 40 0.0 12.0 0.00 0.00 0.00 46 1027.3
20260508225228 45 40 0.0 12.0 0.00 0.00 0.00 46 1027.4
20260508224728 45 40 0.0 12.0 0.00 0.00 0.00 45 1027.2
20260508224228 45 40 0.0 12.0 0.00 0.00 0.00 44 1027.2
20260508223212 46 40 0.0 12.0 0.00 0.00 0.00 42 1027.4
20260508222711 47 40 0.0 12.0 0.00 0.00 0.00 42 1027.3
20260508222211 47 40 0.0 12.0 0.00 0.00 0.00 42 1027.2
20260508221711 48 40 0.0 12.0 0.00 0.00 0.00 40 1027.1
20260508221210 48 40 0.0 12.0 0.00 0.00 0.00 39 1027.2
20260508220709 48 25 0.0 12.0 0.00 0.00 0.00 39 1027.2
20260508215653 49 109 0.0 12.0 0.00 0.00 0.00 38 1027.2
20260508215153 49 56 0.0 12.0 0.00 0.00 0.00 37 1027.3
20260508214652 49 62 1.0 12.0 0.00 0.00 0.00 37 1027.4
20260508214151 49 94 0.0 12.0 0.00 0.00 0.00 37 1026.9
20260508213650 50 55 0.0 12.0 0.00 0.00 0.00 36 1027.2
20260508213150 50 71 0.0 12.0 0.00 0.00 0.00 36 1027.0
20260508212135 50 93 0.0 12.0 0.00 0.00 0.00 35 1027.0
20260508211634 50 65 1.0 12.0 0.00 0.00 0.00 35 1026.9
20260508211133 51 77 1.0 12.0 0.00 0.00 0.00 34 1026.9
20260508210632 51 83 0.0 12.0 0.00 0.00 0.00 34 1026.8
20260508210132 51 88 1.0 12.0 0.00 0.00 0.00 34 1026.7
20260508205632 51 123 2.0 12.0 0.00 0.00 0.00 34 1026.5
20260508205132 51 94 3.0 12.0 0.00 0.00 0.00 33 1026.9
20260508204632 51 57 2.0 12.0 0.00 0.00 0.00 33 1026.5
20260508204132 51 52 1.0 12.0 0.00 0.00 0.00 33 1026.6
20260508203631 52 96 2.0 12.0 0.00 0.00 0.00 33 1026.8
20260508203131 52 59 1.0 12.0 0.00 0.00 0.00 34 1026.7
20260508202631 52 92 2.0 12.0 0.00 0.00 0.00 35 1026.6
20260508202131 52 67 1.0 12.0 0.00 0.00 0.00 35 1026.7
20260508200600 53 29 2.0 12.0 0.00 0.00 0.00 35 1026.3
20260508195027 54 66 1.0 12.0 0.00 0.00 0.00 35 1026.3
20260508194011 54 46 1.0 12.0 0.00 0.00 0.00 34 1026.0
20260508193510 54 40 0.0 12.0 0.00 0.00 0.00 34 1025.8
20260508193009 54 69 1.0 12.0 0.00 0.00 0.00 34 1026.0
20260508192509 55 86 0.0 12.0 0.00 0.00 0.00 33 1025.7
20260508192009 55 40 0.0 12.0 0.00 0.00 0.00 33 1025.8
20260508191509 55 51 0.0 12.0 0.00 0.00 0.00 33 1025.5
20260508191008 55 52 2.0 12.0 0.00 0.00 0.00 32 1025.7
20260508190508 56 39 1.0 12.0 0.00 0.00 0.00 32 1025.7
20260508190008 56 58 0.0 12.0 0.00 0.00 0.00 32 1025.5
20260508185508 56 37 0.0 12.0 0.00 0.00 0.00 31 1025.4
20260508185008 57 41 1.0 12.0 0.00 0.00 0.00 30 1025.4
20260508184507 57 68 0.0 12.0 0.00 0.00 0.00 32 1025.3
20260508184007 58 68 0.0 12.0 0.00 0.00 0.00 30 1025.2
20260508183507 58 68 0.0 12.0 0.00 0.00 0.00 28 1025.3
20260508182452 59 68 0.0 12.0 0.00 0.00 0.00 29 1024.9
20260508181952 59 68 0.0 12.0 0.00 0.00 0.00 28 1025.1
20260508181452 59 67 1.0 12.0 0.00 0.00 0.00 26 1025.0
20260508180951 59 61 0.0 12.0 0.00 0.00 0.00 27 1025.2
20260508180451 59 61 0.0 12.0 0.00 0.00 0.00 26 1025.0
20260508175951 59 60 0.0 12.0 0.00 0.00 0.00 26 1024.9
20260508175450 59 67 1.0 12.0 0.00 0.00 0.00 25 1025.2
20260508174434 60 87 1.0 12.0 0.00 0.00 0.00 25 1024.9
20260508173933 60 98 1.0 12.0 0.00 0.00 0.00 24 1024.8
20260508173432 60 101 1.0 12.0 0.00 0.00 0.00 24 1024.9
20260508172932 60 13 0.0 12.0 0.00 0.00 0.00 26 1024.6
20260508172431 60 120 2.0 12.0 0.00 0.00 0.00 25 1024.9
20260508171931 60 96 2.0 12.0 0.00 0.00 0.00 24 1024.8
20260508171431 61 118 2.0 12.0 0.00 0.00 0.00 24 1024.6
20260508170931 61 118 1.0 12.0 0.00 0.00 0.00 24 1024.9
20260508170431 61 90 3.0 12.0 0.00 0.00 0.00 24 1024.7
20260508165931 61 107 1.0 12.0 0.00 0.00 0.00 24 1024.4
20260508165430 62 116 1.0 12.0 0.00 0.00 0.00 24 1024.5
20260508164930 62 56 1.0 12.0 0.00 0.00 0.00 24 1024.7
20260508164430 62 72 2.0 12.0 0.00 0.00 0.00 24 1024.5
20260508163414 62 124 2.0 12.0 0.00 0.00 0.00 24 1024.6
20260508162912 62 97 2.0 12.0 0.00 0.00 0.00 23 1024.6
20260508162411 62 90 2.0 12.0 0.00 0.00 0.00 24 1024.6
20260508161911 62 60 2.0 12.0 0.00 0.00 0.00 23 1024.4
20260508161410 62 94 3.0 12.0 0.00 0.00 0.00 24 1024.2
20260508160909 62 87 3.0 12.0 0.00 0.00 0.00 24 1024.4
20260508160408 62 117 2.0 12.0 0.00 0.00 0.00 23 1024.4
20260508155907 63 91 3.0 12.0 0.00 0.00 0.00 23 1024.5
20260508154850 63 113 5.0 12.0 0.00 0.00 0.00 24 1024.7
20260508154350 63 93 2.0 11.0 0.00 0.00 0.00 24 1024.7
20260508153849 63 98 2.0 11.0 0.00 0.00 0.00 23 1024.4
20260508152832 64 86 2.0 11.0 0.00 0.00 0.00 23 1024.7
20260508152331 64 98 2.0 11.0 0.00 0.00 0.00 23 1024.5
20260508151314 63 69 2.0 11.0 0.00 0.00 0.00 23 1024.4
20260508150814 64 99 3.0 11.0 0.00 0.00 0.00 22 1024.6
20260508150313 64 29 1.0 11.0 0.00 0.00 0.00 23 1024.4
20260508145812 64 58 1.0 11.0 0.00 0.00 0.00 24 1024.9
20260508144758 64 89 4.0 11.0 0.00 0.00 0.00 23 1024.8
20260508144257 64 39 3.0 11.0 0.00 0.00 0.00 23 1024.7
20260508143756 64 133 1.0 11.0 0.00 0.00 0.00 23 1024.4
20260508143255 64 130 4.0 11.0 0.00 0.00 0.00 22 1024.7
20260508142755 64 128 2.0 11.0 0.00 0.00 0.00 22 1024.8
20260508142256 64 117 4.0 11.0 0.00 0.00 0.00 23 1024.6
20260508141756 64 107 1.0 11.0 0.00 0.00 0.00 24 1024.7
20260508141254 65 110 4.0 11.0 0.00 0.00 0.00 22 1024.9
20260508140753 65 38 2.0 11.0 0.00 0.00 0.00 24 1024.5
20260508140254 65 120 1.0 11.0 0.00 0.00 0.00 23 1024.8
20260508135753 65 49 2.0 11.0 0.00 0.00 0.00 24 1024.7
20260508135252 64 86 1.0 11.0 0.00 0.00 0.00 24 1024.8
20260508134752 64 60 1.0 11.0 0.00 0.00 0.00 25 1024.8
20260508134252 64 85 2.0 11.0 0.00 0.00 0.00 23 1024.9
20260508133235 65 10 2.0 11.0 0.00 0.00 0.00 24 1025.1
20260508132217 64 25 1.0 11.0 0.00 0.00 0.00 25 1025.1
20260508131716 64 16 3.0 11.0 0.00 0.00 0.00 25 1024.9
20260508130702 64 84 2.0 11.0 0.00 0.00 0.00 25 1024.9
20260508130202 64 87 1.0 11.0 0.00 0.00 0.00 26 1024.9
20260508125701 65 58 2.0 11.0 0.00 0.00 0.00 24 1025.1
20260508125201 64 54 1.0 11.0 0.00 0.00 0.00 24 1025.2
20260508124701 64 82 1.0 11.0 0.00 0.00 0.00 26 1025.2
20260508124201 64 98 4.0 11.0 0.00 0.00 0.00 25 1025.3
20260508123701 64 116 2.0 11.0 0.00 0.00 0.00 23 1024.9
20260508123201 64 24 2.0 11.0 0.00 0.00 0.00 25 1025.1
20260508122701 64 7 1.0 11.0 0.00 0.00 0.00 25 1025.0
20260508122201 64 40 3.0 11.0 0.00 0.00 0.00 23 1025.0
20260508121701 64 56 3.0 11.0 0.00 0.00 0.00 25 1025.2
20260508120645 64 35 1.0 11.0 0.00 0.00 0.00 24 1025.0
20260508120144 63 358 2.0 11.0 0.00 0.00 0.00 24 1025.2
20260508115129 63 9 1.0 11.0 0.00 0.00 0.00 25 1025.3
20260508114628 64 72 4.0 11.0 0.00 0.00 0.00 24 1025.5
20260508114127 64 19 2.0 11.0 0.00 0.00 0.00 24 1025.1
20260508113627 64 134 1.0 11.0 0.00 0.00 0.00 23 1025.5
20260508113126 64 112 1.0 11.0 0.00 0.00 0.00 23 1025.4
20260508112626 63 56 3.0 11.0 0.00 0.00 0.00 24 1025.4
20260508112125 63 35 3.0 11.0 0.00 0.00 0.00 23 1025.5